Probability
0 0 0 0 0 0 0 0 0 0 0 0 0 0 0 0 0 0 0 0 0 0 0 0 0 0 0 0 0 0 0 0 0 0 0 0 0 0 0 0 0 0 0 0
0 0 0 0 0 0 0 0 0 0 0 0 0 0 0 0 0 0 0 0 0 0 0 0 0 0 0 0 0 0 0 0 0 0 0 0 0 0 0 0 0 0 0 0
0 0 0 0 0 0 0 0 0 0 0 0 0 0 0 0 0 0 0 0 0 0 0 0 0 0 0 0 0 0 0 0 0 0 0 0 0 0 0 0 0 0 0 0
0 0 0 0 0 0 0 0 0 0 0 0 0 0 0 0 0 0 0 0 0 0 0 0 0 0 0 0 0 0 0 0 0 0 0 0 0 0 0 0 0 0 0 0
0 0 0 0 0 0 0 0 0 0 0 0 0 0 0 0 0 0 0 0 0 0 0 0 0 0 0 0 0 0 0 0 0 0 0 0 0 0 0 0 0 0 0 0
0 0 0 0 0 0 0 0 0 0 0 0 0 0 0 0 0 0 0 0 0 0 0 0 0 0 0 0 0 0 0 0 0 0 0 0 0 0 0 0 0 0 0 0
0 0 0 0 0 0 0 0 0 0 0 0 0 0 0 0 0 0 0 0 0 0 0 0 0 0 0 0 0 0 0 0 0 0 0 0 0 0 0 0 0 0 0 0
0 0 0 0 0 0 0 0 0 0 0 0 0 0 0 0 0 0 0 0 0 0 0 0 0 0 0 0 0 0 0 0 0 0 0 0 0 0 0 0 0 0 0 0
0 0 0 0 0 0 0 0 0 0 0 0 0 0 0 0 0 0 0 0 0 0 0 0 0 0 0 0 0 0 0 0 0 0 0 0 0 0 0 0 0 0 0 0
0 0 0 0 0 0 0 0 0 0 0 0 0 0 0 0 0 0 0 0 0 0 0 0 0 0 0 0 0 0 0 0 0 0 0 0 0 0 0 0 0 0 0 0
0 0 0 0 0 0 0 0 0 0 0 0 0 0 0 0 0 0 0 0 0 0 0 0 0 0 0 0 0 0 0 0 0 0 0 0 0 0 0 0 0 0 0 0
0 0 0 0 0 0 0 0 0 0 0 0 0 0 0 0 0 0 0 0 0 0 0 0 0 0 0 0 0 0 0 0 0 0 0 0 0 0 0 0 0 0 0 0
0 0 0 0 0 0 0 0 0 0 0 0 0 0 0 0 0 0 0 0 0 0 0 0 0 0 0 0 0 0 0 0 0 0 0 0 0 0 0 0 0 0 0 0
0 0 0 0 0 0 0 0 0 0 0 0 0 0 0 0 0 0 0 0 0 0 0 0 0 0 0 0 0 0 0 0 0 0 0 0 0 0 0 0 0 0 0 0
0 0 0 0 0 0 0 0 0 0 0 0 0 0 0 0 0 0 0 0 0 0 0 0 0 0 0 0 0 0 0 0 0 0 0 0 0 0 0 0 0 0 0 0
0 0 0 0 0 0 0 0 0 0 0 0 0 0 0 0 0 0 0 0 0 0 0 0 0 0 0 0 0 0 0 0 0 0 0 0 0 0 0 0 0 0 0 0
0 0 0 0 0 0 0 0 0 0 0 0 0 0 0 0 0 0 0 0 0 0 0 0 0 0 0 0 0 0 0 0 0 0 0 0 0 0 0 0 0 0 0 0
0 0 0 0 0 0 0 0 0 0 0 0 0 0 0 0 0 0 0 0 0 0 0 0 0 0 0 0 0 0 0 0 0 0 0 0 0 0 0 0 0 0 0 0
0 0 0 0 0 0 0 0 0 0 0 0 0 0 0 0 0 0 0 0 0 0 0 0 0 0 0 0 0 0 0 0 0 0 0 0 0 0 0 0 0 0 0 0
0 0 0 0 0 0 0 0 0 0 0 0 0 0 0 0 0 0 0 0 0 0 0 0 0 0 0 0 0 0 0 0 0 0 0 0 0 0 0 0 0 0 0 0
0 0 0 0 0 0 0 0 0 0 0 0 0 0 0 0 0 0 0 0 0 0 0 0 0 0 0 0 0 0 0 0 0 0 0 0 0 0 0 0 0 0 0 0
0 0 0 0 0 0 0 0 0 0 0 0 0 0 0 0 0 0 0 0 0 0 0 0 0 0 0 0 0 0 0 0 0 0 0 0 0 0 0 0 0 0 0 0
0 0 0 0 0 0 0 0 0 0 0 0 0 0 0 0 0 0 0 0 0 0 0 0 0 0 0 0 0 0 0 0 0 0 0 0 0 0 0 0 0 0 0 0
0 0 0 0 0 0 0 0 0 0 0 0 0 0 0 0 0 0 0 0 0 0 0 0 0 0 0 0 0 0 0 0 0 0 0 0 0 0 0 0 0 0 0 0
0 0 0 0 0 0 0 0 0 0 0 0 0 0 0 0 0 0 0 0 0 0 0 0 0 0 0 0 0 0 0 0 0 0 0 0 0 0 0 0 0 0 0 0
0 0 0 0 0 0 0 0 0 0 0 0 0 0 0 0 0 0 0 0 0 0 0 0 0 0 0 0 0 0 0 0 0 0 0 0 0 0 0 0 0 0 0 0
0 0 0 0 0 0 0 0 0 0 0 0 0 0 0 0 0 0 0 0 0 0 0 0 0 0 0 0 0 0 0 0 0 0 0 0 0 0 0 0 0 0 0 0
Height
5866 5862 5859 5856 5852 5849 5846 5843 5840 5837 5834 5831 5828 5824 5821 5818 5815 5811 5808 5805 5802 5799 5795 5792 5789 5787 5785 5783 5782 5780 5779 5778 5778 5777 5776 5776 5775 5775 5775 5774 5774 5773 5773 5772
5867 5864 5861 5858 5854 5851 5848 5845 5842 5839 5837 5833 5830 5827 5824 5821 5818 5815 5812 5809 5806 5803 5800 5797 5795 5792 5790 5788 5786 5785 5783 5782 5781 5780 5778 5777 5776 5775 5774 5774 5773 5772 5771 5770
5870 5866 5863 5860 5857 5854 5851 5848 5845 5842 5840 5835 5833 5830 5827 5825 5822 5819 5816 5814 5811 5808 5805 5803 5800 5798 5795 5793 5791 5789 5787 5786 5784 5782 5781 5779 5777 5776 5775 5773 5772 5771 5769 5768
5872 5870 5866 5865 5859 5856 5853 5850 5847 5844 5842 5839 5836 5834 5831 5829 5826 5823 5821 5818 5816 5813 5811 5808 5806 5803 5801 5798 5796 5794 5792 5790 5787 5785 5783 5781 5779 5777 5775 5773 5771 5769 5767 5765
5874 5871 5868 5866 5862 5859 5856 5853 5850 5848 5845 5842 5840 5837 5835 5832 5830 5828 5825 5823 5821 5818 5816 5813 5811 5808 5806 5803 5801 5798 5796 5793 5791 5788 5786 5783 5780 5777 5775 5772 5770 5767 5765 5763
5876 5873 5871 5869 5865 5861 5860 5857 5854 5851 5848 5846 5843 5842 5840 5837 5834 5832 5830 5828 5825 5823 5821 5818 5816 5813 5811 5808 5805 5803 5800 5797 5794 5791 5788 5785 5782 5779 5776 5773 5770 5767 5764 5761
5878 5876 5873 5870 5867 5865 5863 5861 5857 5854 5852 5849 5847 5846 5843 5841 5839 5837 5835 5832 5830 5828 5825 5823 5820 5818 5815 5812 5809 5806 5803 5800 5797 5794 5791 5787 5784 5780 5777 5774 5770 5767 5763 5760
5879 5877 5877 5872 5869 5867 5865 5862 5859 5857 5855 5853 5851 5849 5847 5845 5843 5841 5839 5837 5834 5832 5829 5827 5824 5822 5819 5816 5813 5810 5807 5804 5800 5797 5793 5790 5786 5782 5778 5775 5771 5767 5764 5761
5881 5880 5877 5874 5871 5869 5867 5864 5862 5860 5858 5856 5854 5852 5850 5848 5846 5844 5842 5840 5838 5835 5833 5830 5828 5825 5822 5820 5817 5814 5810 5807 5804 5800 5796 5793 5789 5785 5781 5777 5773 5769 5766 5762
5880 5879 5877 5875 5872 5870 5868 5866 5864 5862 5860 5858 5856 5854 5853 5851 5849 5847 5845 5843 5841 5838 5836 5834 5831 5828 5826 5823 5820 5817 5814 5810 5807 5803 5800 5796 5792 5788 5784 5780 5776 5772 5769 5765
5879 5878 5877 5875 5873 5871 5869 5867 5865 5863 5862 5860 5858 5856 5855 5853 5851 5849 5847 5845 5843 5841 5839 5836 5834 5831 5829 5826 5823 5820 5817 5813 5810 5806 5803 5799 5795 5791 5787 5783 5779 5776 5773 5769
5878 5877 5876 5875 5873 5871 5870 5868 5866 5864 5862 5861 5859 5857 5856 5854 5852 5851 5849 5847 5845 5843 5841 5839 5836 5834 5831 5829 5826 5823 5820 5817 5813 5810 5806 5802 5799 5795 5791 5787 5784 5780 5777 5774
5875 5875 5874 5873 5872 5871 5869 5868 5866 5864 5863 5861 5859 5858 5856 5855 5853 5851 5850 5848 5846 5844 5842 5840 5838 5836 5834 5831 5828 5826 5823 5820 5816 5813 5809 5806 5802 5799 5795 5792 5789 5785 5782 5779
5872 5872 5871 5870 5870 5869 5868 5867 5865 5864 5862 5861 5859 5858 5856 5855 5853 5851 5850 5848 5847 5845 5843 5841 5839 5837 5835 5833 5831 5828 5825 5822 5819 5816 5813 5809 5806 5803 5800 5796 5794 5791 5788 5785
5868 5868 5868 5867 5867 5866 5866 5865 5864 5863 5861 5860 5859 5857 5856 5854 5853 5851 5850 5848 5847 5845 5844 5842 5840 5838 5836 5834 5832 5830 5827 5825 5822 5819 5816 5813 5810 5807 5804 5801 5798 5795 5793 5790
5863 5863 5863 5863 5863 5863 5862 5862 5861 5861 5860 5859 5857 5856 5855 5853 5852 5850 5849 5848 5846 5845 5843 5842 5840 5838 5837 5835 5833 5831 5829 5826 5824 5821 5819 5816 5813 5810 5807 5805 5802 5800 5797 5795
5857 5857 5858 5858 5858 5858 5858 5858 5858 5857 5857 5856 5855 5854 5853 5852 5850 5849 5848 5846 5845 5844 5842 5841 5839 5838 5836 5835 5833 5831 5829 5827 5825 5823 5821 5818 5816 5813 5811 5808 5806 5803 5801 5799
5850 5851 5852 5852 5853 5853 5853 5853 5853 5853 5852 5852 5852 5851 5850 5849 5848 5847 5846 5844 5843 5842 5841 5839 5838 5837 5835 5834 5832 5831 5829 5828 5826 5824 5822 5820 5817 5815 5813 5811 5809 5806 5804 5803
5842 5843 5844 5845 5846 5846 5847 5847 5847 5847 5847 5847 5847 5846 5846 5845 5845 5844 5843 5842 5841 5840 5839 5837 5836 5835 5834 5832 5831 5830 5828 5827 5825 5824 5822 5820 5819 5817 5815 5813 5811 5809 5807 5805
5833 5834 5835 5837 5838 5839 5839 5840 5840 5840 5841 5841 5841 5841 5840 5840 5840 5839 5839 5838 5837 5837 5836 5835 5833 5832 5831 5830 5829 5828 5827 5825 5824 5823 5821 5820 5819 5817 5815 5814 5812 5810 5809 5807
5822 5824 5826 5827 5828 5830 5831 5832 5832 5833 5833 5834 5834 5834 5834 5834 5834 5834 5833 5833 5833 5832 5831 5831 5830 5829 5828 5827 5826 5825 5824 5823 5822 5821 5820 5819 5817 5816 5815 5813 5812 5811 5809 5808
5810 5812 5814 5816 5818 5819 5821 5822 5823 5824 5825 5825 5826 5826 5827 5827 5827 5827 5827 5827 5827 5826 5826 5825 5825 5824 5824 5823 5822 5821 5820 5819 5819 5818 5817 5816 5815 5814 5813 5812 5811 5809 5808 5807
5796 5799 5801 5803 5805 5807 5809 5811 5812 5814 5815 5816 5817 5818 5818 5818 5819 5819 5819 5819 5819 5819 5819 5819 5819 5818 5818 5818 5817 5816 5816 5815 5814 5814 5813 5812 5812 5811 5810 5809 5808 5807 5806 5805
5782 5784 5787 5789 5792 5794 5796 5798 5800 5802 5804 5805 5806 5807 5808 5809 5810 5810 5810 5811 5811 5811 5811 5811 5811 5811 5811 5811 5811 5810 5810 5810 5809 5809 5808 5807 5807 5806 5806 5805 5804 5804 5803 5802
5766 5769 5771 5774 5777 5779 5782 5784 5787 5789 5791 5793 5794 5795 5797 5798 5799 5799 5800 5801 5801 5802 5802 5802 5802 5803 5803 5803 5803 5803 5803 5802 5802 5802 5802 5801 5801 5801 5800 5800 5799 5799 5798 5798
5749 5752 5755 5758 5761 5763 5766 5769 5771 5774 5776 5778 5780 5782 5783 5785 5786 5787 5788 5789 5790 5791 5791 5792 5792 5793 5793 5794 5794 5794 5794 5794 5794 5794 5794 5794 5794 5793 5793 5793 5793 5792 5792 5792
5729 5733 5737 5740 5743 5746 5749 5752 5754 5757 5760 5762 5764 5766 5768 5770 5772 5773 5775 5776 5777 5778 5779 5780 5780 5781 5782 5783 5783 5784 5784 5784 5785 5785 5785 5785 5785 5785 5785 5785 5785 5785 5785 5784
Wind_Speed
17 16 16 15 15 14 14 14 15 15 15 16 16 16 16 18 19 20 20 21 20 20 20 20 19 18 18 17 17 16 15 14 12 11 10 9 7 6 5 5 5 6 7 8
17 17 16 16 15 15 14 14 15 15 15 16 16 16 17 18 18 19 19 20 21 21 21 21 20 20 20 19 19 18 17 16 14 13 13 12 10 9 8 7 7 7 7 8
17 17 17 16 16 16 15 15 15 15 16 16 16 16 17 18 18 19 19 19 21 22 22 22 22 21 20 20 20 19 19 18 17 16 15 14 13 11 10 9 9 8 8 8
17 17 16 16 16 17 16 15 15 15 16 17 17 17 17 18 19 19 20 20 20 21 21 21 21 21 21 20 19 20 19 19 18 17 16 15 14 13 12 11 11 10 11 10
16 16 15 15 16 16 16 16 15 15 16 17 17 17 17 18 18 19 19 20 20 20 21 21 21 21 21 21 20 20 19 19 19 19 18 17 17 16 15 14 13 12 12 11
15 15 14 14 15 15 15 15 15 15 15 16 16 16 17 17 18 18 19 19 19 19 19 20 20 20 20 20 20 20 20 20 20 19 19 19 19 18 17 16 16 15 13 12
13 14 14 14 14 14 14 14 14 14 14 15 15 16 16 16 16 16 17 18 18 18 18 18 19 19 19 20 20 20 20 20 20 20 20 20 19 19 18 17 17 16 15 14
11 12 12 12 12 12 12 12 12 12 12 13 13 14 14 15 15 15 15 16 17 17 17 17 18 18 19 19 19 20 20 21 21 21 21 21 20 20 19 19 18 18 17 16
9 10 10 11 11 11 10 10 10 10 10 10 11 11 12 13 13 14 14 15 15 16 16 17 17 18 18 19 19 20 20 21 21 21 21 21 21 21 20 20 19 18 18 17
6 7 8 9 9 9 9 9 8 8 8 8 8 9 9 10 11 12 13 13 14 15 15 16 17 17 18 18 19 20 20 21 21 21 21 21 21 21 21 21 20 19 19 18
5 5 6 7 7 7 7 7 7 7 7 6 7 7 8 8 9 10 11 11 12 13 14 15 16 17 17 18 18 19 20 20 21 22 21 21 21 22 22 22 21 20 20 20
6 6 5 5 6 6 6 6 6 6 6 5 6 6 6 7 8 8 9 10 11 11 12 13 14 15 16 17 18 19 19 20 20 21 21 21 21 22 22 22 21 21 21 21
9 8 7 6 6 6 5 5 5 5 5 5 5 5 6 6 7 7 8 9 10 10 11 11 12 14 14 15 17 18 18 19 20 20 20 20 21 21 21 21 21 21 21 21
11 11 10 9 8 7 6 6 5 5 5 5 5 5 6 6 6 7 7 8 8 9 9 10 11 12 13 14 15 16 17 18 19 19 20 20 20 20 20 20 20 20 20 21
13 13 12 11 11 10 9 8 7 6 6 6 6 5 6 6 6 7 7 7 8 8 8 9 10 10 11 12 13 14 15 16 17 17 18 18 18 18 19 18 18 19 19 19
17 15 14 14 13 13 12 12 10 9 8 7 7 6 6 6 7 7 7 7 8 8 8 8 9 9 10 10 11 12 13 14 15 16 16 17 17 17 17 17 17 17 17 17
21 19 18 17 16 16 15 15 14 13 11 10 9 9 8 8 8 8 8 8 8 8 8 8 9 9 9 9 10 11 11 12 13 13 14 15 15 15 15 15 15 15 15 15
25 23 22 20 19 19 18 18 17 16 15 14 13 12 11 10 10 9 9 9 9 9 9 9 9 9 9 9 10 10 10 10 11 12 12 12 13 13 13 13 13 13 12 12
29 27 26 24 23 22 22 21 20 19 18 17 17 16 15 14 13 12 12 11 11 10 10 10 10 10 10 10 10 10 10 10 10 10 10 11 11 11 11 11 11 11 10 10
33 31 30 29 27 26 25 24 23 23 22 21 20 19 19 18 17 17 16 15 14 13 13 12 12 12 12 12 11 11 11 10 10 10 10 10 10 10 10 9 9 9 8 8
37 35 34 33 32 31 30 28 27 26 25 24 24 23 22 22 21 20 20 19 18 17 17 16 15 14 14 14 13 13 12 12 12 11 11 10 10 9 9 9 8 8 7 7
42 40 39 37 36 35 34 33 32 31 30 29 28 27 26 25 25 24 24 23 22 21 21 20 19 18 17 16 16 15 15 14 14 13 13 12 11 11 10 10 9 8 8 8
46 45 44 42 41 40 39 37 37 36 34 33 32 31 31 30 29 28 27 27 26 25 25 24 23 22 21 20 19 18 18 17 17 16 16 15 14 14 13 12 11 11 10 9
50 50 49 48 47 45 44 43 42 41 39 38 37 36 35 34 33 33 32 31 30 29 28 28 26 25 25 24 23 22 22 21 20 19 19 18 18 17 17 16 15 14 13 13
55 54 53 53 52 51 50 49 47 46 45 44 43 42 40 39 38 37 36 35 34 33 32 31 31 30 29 28 27 26 25 25 24 24 23 22 21 21 20 20 19 18 18 17
58 58 58 57 57 56 55 54 53 51 50 49 48 47 46 44 43 42 41 40 39 38 37 36 35 34 33 32 31 30 29 28 27 27 26 26 25 24 23 23 22 22 21 21
62 62 61 61 61 60 60 59 58 57 55 54 53 52 51 49 48 47 46 45 44 43 42 41 40 39 37 36 35 34 33 32 31 31 30 29 28 28 27 26 25 25 25 24
Wind_Direction
28 26 25 24 22 22 24 25 27 29 31 33 33 34 35 38 41 43 45 47 47 47 48 49 51 53 56 57 58 58 57 57 55 52 48 45 42 36 21 5 347 329 312 303
29 29 28 26 25 26 28 29 30 32 33 34 36 39 41 42 44 47 48 49 49 50 51 52 53 54 55 56 57 55 55 54 53 51 47 44 39 32 22 12 359 342 328 316
29 29 30 30 29 31 32 33 34 36 38 40 42 44 46 47 49 51 52 52 53 54 55 54 55 56 56 56 54 54 53 52 49 47 44 41 36 30 23 16 8 356 340 326
30 30 33 32 33 34 35 38 40 43 44 45 48 50 51 52 54 54 54 55 55 55 55 54 54 54 54 54 53 51 49 46 46 43 40 36 33 28 23 17 9 358 348 337
31 32 34 35 35 35 38 42 46 48 49 50 51 53 54 55 55 54 54 56 56 56 55 54 52 51 50 50 49 47 45 43 41 38 36 32 29 27 23 17 11 3 356 348
29 31 34 37 38 39 41 45 48 51 52 51 52 53 56 56 56 55 55 56 55 54 53 51 49 48 46 44 43 41 39 37 35 33 31 29 26 24 21 18 15 11 6 360
26 29 33 35 38 40 44 46 49 52 53 53 53 55 58 58 55 54 55 54 52 51 49 47 44 42 41 40 39 37 35 33 32 31 29 26 24 22 20 18 17 15 13 10
22 25 28 32 36 40 45 48 49 50 51 53 55 56 57 56 54 54 52 49 47 45 43 41 39 38 38 37 35 34 32 31 30 29 27 26 25 24 23 22 21 21 21 20
13 20 25 29 33 37 40 44 46 49 50 53 54 54 52 52 51 49 47 44 42 40 39 38 36 35 35 34 33 32 31 30 29 28 28 27 27 27 26 26 27 28 29 31
351 4 14 19 26 30 33 37 41 44 45 46 47 45 44 44 42 41 40 38 37 36 36 36 35 35 34 33 31 30 29 29 29 28 28 28 29 29 30 31 33 35 36 37
318 337 354 4 11 18 21 24 28 31 32 33 34 36 35 34 33 32 32 31 31 31 32 32 33 32 32 31 30 29 29 29 29 28 28 29 30 31 33 35 37 39 41 42
285 297 318 336 347 355 5 10 12 14 16 19 21 22 22 21 21 21 21 22 23 24 25 27 28 28 28 27 28 28 28 28 28 28 29 30 32 34 35 38 41 42 44 47
272 276 283 297 311 325 334 345 355 359 1 2 1 2 4 5 6 7 10 13 15 16 17 19 22 23 24 24 25 26 26 27 28 28 29 30 32 34 37 40 43 45 47 50
266 267 271 276 284 292 302 312 321 333 341 344 346 346 348 350 351 353 355 359 3 6 8 9 11 14 17 19 20 21 23 24 25 27 28 29 32 34 37 40 43 46 49 52
263 264 265 268 271 276 280 285 292 300 310 320 327 332 335 338 340 340 340 342 345 349 354 358 360 3 7 10 13 15 18 20 23 25 26 28 31 33 36 40 43 47 50 53
261 261 262 264 266 268 270 272 275 280 286 292 301 309 315 319 324 329 331 331 332 335 338 341 345 349 354 359 3 6 9 14 18 21 23 26 28 31 34 38 41 45 48 51
260 260 261 261 263 264 265 266 268 270 273 277 282 288 295 301 307 313 318 322 323 323 324 327 331 335 338 344 350 356 359 4 9 14 18 21 24 27 30 33 37 41 45 48
259 259 259 259 260 261 262 263 265 266 267 269 273 277 281 287 293 299 304 309 313 314 314 315 316 320 325 330 334 340 348 354 358 3 9 14 17 21 25 28 32 36 40 43
257 257 257 258 259 259 260 261 263 264 265 267 268 270 273 277 281 285 290 294 298 303 306 307 308 307 309 314 319 323 328 335 342 349 355 360 5 10 14 18 22 28 33 36
256 256 256 257 257 258 259 260 261 263 264 265 266 267 269 271 274 277 280 283 287 291 295 299 301 302 301 301 303 306 310 316 321 327 333 339 346 352 358 2 6 9 14 21
255 256 256 257 257 257 258 259 260 262 263 264 265 267 268 269 270 272 274 277 279 282 285 287 291 293 295 296 296 297 298 301 304 309 313 316 322 327 333 339 343 345 348 351
254 255 256 256 257 257 257 258 259 261 262 263 265 266 268 269 270 271 272 273 275 277 279 280 282 284 286 288 290 291 292 293 294 296 299 301 303 307 311 314 318 321 322 322
253 254 255 256 257 257 258 258 259 260 261 262 264 265 266 268 269 270 272 273 274 274 275 276 277 278 279 280 282 284 285 287 288 288 289 290 292 293 294 297 299 301 302 303
251 253 254 255 256 257 258 258 259 260 261 262 263 264 266 267 268 269 270 272 272 273 273 273 274 275 276 277 277 277 278 279 281 283 284 284 285 285 286 286 286 288 290 290
250 252 253 255 256 257 258 259 260 261 262 262 263 264 265 266 267 268 269 269 270 271 271 272 272 273 273 274 274 274 275 275 276 277 278 280 280 281 280 280 280 280 281 282
249 250 252 253 255 257 258 259 260 261 262 262 263 264 265 265 266 267 267 268 269 269 270 270 271 271 272 272 272 272 272 272 273 273 274 274 275 277 277 277 277 277 277 277
248 249 250 252 253 255 257 258 259 260 261 262 263 263 264 265 265 266 266 267 267 268 268 269 269 269 270 270 270 271 271 271 271 271 271 271 271 272 273 274 275 275 274 274